Hourly Weather Bolshie Rogatki

Today, 20 June, Sunday

Time Temperature Precipitation Wind Pressure Humidity
00:00 +18°C° 0 mm 2 mps 756 mmHg 87%
01:00 +18°C° 0 mm 2 mps 756 mmHg 90%
02:00 +18°C° 0 mm 2 mps 756 mmHg 93%
03:00 +18°C° 0 mm 2 mps 756 mmHg 92%
04:00 +18°C° 0 mm 2 mps 756 mmHg 91%
05:00 +19°C° 0 mm 2 mps 756 mmHg 90%
06:00 +21°C° 0 mm 2 mps 756 mmHg 82%
07:00 +24°C° 0 mm 2 mps 756 mmHg 73%
08:00 +26°C° 0 mm 2 mps 756 mmHg 64%
09:00 +28°C° 0 mm 3 mps 756 mmHg 58%
10:00 +29°C° 0 mm 3 mps 755 mmHg 52%
11:00 +31°C° 0 mm 3 mps 755 mmHg 46%
12:00 +33°C° 0 mm 3 mps 755 mmHg 44%
13:00 +33°C° 0 mm 3 mps 755 mmHg 42%
14:00 +34°C° 0 mm 3 mps 755 mmHg 40%
15:00 +33°C° 0 mm 3 mps 754 mmHg 45%
16:00 +30°C° 0 mm 2 mps 754 mmHg 51%
17:00 +29°C° 0 mm 2 mps 754 mmHg 57%
18:00 +28°C° 0 mm 1 mps 754 mmHg 62%
19:00 +27°C° 0 mm 1 mps 754 mmHg 67%
20:00 +26°C° 0 mm 1 mps 754 mmHg 72%
21:00 +25°C° 0 mm 1 mps 754 mmHg 77%
22:00 +24°C° 0 mm 2 mps 754 mmHg 81%
23:00 +23°C° 0 mm 2 mps 754 mmHg 86%

Tomorrow, 21 June, Monday

Time Temperature Precipitation Wind Pressure Humidity
00:00 +21°C° 0.1 mm 2 mps 754 mmHg 89%
01:00 +21°C° 0.1 mm 2 mps 754 mmHg 92%
02:00 +20°C° 0.1 mm 2 mps 755 mmHg 95%
03:00 +20°C° 0 mm 2 mps 754 mmHg 93%
04:00 +20°C° 0 mm 2 mps 754 mmHg 92%
05:00 +20°C° 0 mm 2 mps 754 mmHg 90%
06:00 +23°C° 0 mm 2 mps 754 mmHg 81%
07:00 +25°C° 0 mm 2 mps 754 mmHg 72%
08:00 +27°C° 0 mm 3 mps 754 mmHg 63%
09:00 +28°C° 0 mm 3 mps 754 mmHg 57%
10:00 +30°C° 0 mm 3 mps 754 mmHg 50%
11:00 +31°C° 0 mm 3 mps 754 mmHg 44%
12:00 +33°C° 0 mm 3 mps 754 mmHg 41%
13:00 +34°C° 0 mm 3 mps 754 mmHg 39%
14:00 +34°C° 0 mm 3 mps 753 mmHg 36%
15:00 +34°C° 0 mm 3 mps 753 mmHg 38%
16:00 +34°C° 0 mm 3 mps 753 mmHg 40%
17:00 +33°C° 0 mm 3 mps 753 mmHg 43%
18:00 +30°C° 0 mm 3 mps 753 mmHg 52%
19:00 +28°C° 0 mm 2 mps 753 mmHg 61%
20:00 +26°C° 0 mm 2 mps 753 mmHg 70%
21:00 +24°C° 0 mm 2 mps 753 mmHg 73%
22:00 +23°C° 0 mm 2 mps 753 mmHg 76%
23:00 +21°C° 0 mm 2 mps 753 mmHg 80%

Day after tomorrow, 22 June, Tuesday

Time Temperature Precipitation Wind Pressure Humidity
00:00 +20°C° 0 mm 2 mps 753 mmHg 82%
01:00 +20°C° 0 mm 2 mps 753 mmHg 83%
02:00 +20°C° 0 mm 2 mps 753 mmHg 85%
03:00 +20°C° 0 mm 2 mps 753 mmHg 86%
04:00 +20°C° 0 mm 2 mps 753 mmHg 86%
05:00 +21°C° 0 mm 2 mps 753 mmHg 87%
06:00 +22°C° 0 mm 3 mps 753 mmHg 80%
07:00 +25°C° 0 mm 3 mps 753 mmHg 74%
08:00 +27°C° 0 mm 4 mps 753 mmHg 67%
09:00 +28°C° 0 mm 4 mps 752 mmHg 62%
10:00 +29°C° 0 mm 4 mps 752 mmHg 56%
11:00 +32°C° 0 mm 5 mps 752 mmHg 50%
12:00 +33°C° 0 mm 5 mps 752 mmHg 47%
13:00 +33°C° 0 mm 5 mps 752 mmHg 43%
14:00 +34°C° 0 mm 5 mps 752 mmHg 40%
15:00 +34°C° 0 mm 4 mps 752 mmHg 42%
16:00 +34°C° 0 mm 4 mps 752 mmHg 45%
17:00 +34°C° 0 mm 4 mps 751 mmHg 47%
18:00 +31°C° 0.1 mm 3 mps 752 mmHg 56%
19:00 +29°C° 0.1 mm 3 mps 752 mmHg 64%
20:00 +27°C° 0.1 mm 2 mps 752 mmHg 73%
21:00 +26°C° 0.3 mm 2 mps 752 mmHg 79%
22:00 +24°C° 0.3 mm 2 mps 752 mmHg 85%
23:00 +23°C° 0.3 mm 2 mps 752 mmHg 90%

23 June, Wednesday

Time Temperature Precipitation Wind Pressure Humidity
00:00 +23°C° 0.2 mm 2 mps 753 mmHg 92%
01:00 +21°C° 0.2 mm 2 mps 753 mmHg 93%
02:00 +21°C° 0.2 mm 2 mps 753 mmHg 95%
03:00 +21°C° 0 mm 2 mps 753 mmHg 94%
04:00 +23°C° 0 mm 2 mps 753 mmHg 94%
05:00 +23°C° 0 mm 2 mps 753 mmHg 93%
06:00 +25°C° 0 mm 2 mps 753 mmHg 84%
07:00 +26°C° 0 mm 3 mps 753 mmHg 74%
08:00 +28°C° 0 mm 3 mps 753 mmHg 65%
09:00 +30°C° 0 mm 3 mps 753 mmHg 58%
10:00 +31°C° 0 mm 3 mps 753 mmHg 50%
11:00 +34°C° 0 mm 4 mps 753 mmHg 43%
12:00 +34°C° 0 mm 4 mps 753 mmHg 40%
13:00 +35°C° 0 mm 3 mps 753 mmHg 36%
14:00 +35°C° 0 mm 3 mps 753 mmHg 33%
15:00 +35°C° 0 mm 3 mps 753 mmHg 37%
16:00 +34°C° 0 mm 3 mps 753 mmHg 41%
17:00 +34°C° 0 mm 3 mps 753 mmHg 45%
18:00 +31°C° 0 mm 2 mps 753 mmHg 56%
19:00 +29°C° 0 mm 1 mps 753 mmHg 66%
20:00 +27°C° 0 mm 1 mps 753 mmHg 77%
21:00 +26°C° 0.1 mm 1 mps 754 mmHg 80%
22:00 +25°C° 0.1 mm 1 mps 754 mmHg 83%
23:00 +24°C° 0.1 mm 1 mps 754 mmHg 87%

24 June, Thursday

Time Temperature Precipitation Wind Pressure Humidity
00:00 +23°C° 0 mm 1 mps 754 mmHg 88%
01:00 +23°C° 0 mm 1 mps 754 mmHg 90%
02:00 +23°C° 0 mm 1 mps 754 mmHg 91%
03:00 +23°C° 0 mm 1 mps 754 mmHg 90%
04:00 +23°C° 0 mm 1 mps 754 mmHg 89%
05:00 +23°C° 0 mm 1 mps 754 mmHg 88%
06:00 +25°C° 0 mm 1 mps 754 mmHg 80%
07:00 +27°C° 0 mm 1 mps 754 mmHg 71%
08:00 +29°C° 0 mm 1 mps 754 mmHg 63%
09:00 +31°C° 0 mm 2 mps 754 mmHg 57%
10:00 +32°C° 0 mm 2 mps 754 mmHg 52%
11:00 +35°C° 0 mm 3 mps 754 mmHg 46%
12:00 +36°C° 0 mm 3 mps 754 mmHg 43%
13:00 +36°C° 0 mm 3 mps 753 mmHg 40%
14:00 +37°C° 0 mm 3 mps 753 mmHg 37%
15:00 +37°C° 0 mm 3 mps 753 mmHg 39%
16:00 +36°C° 0 mm 3 mps 753 mmHg 41%
17:00 +35°C° 0 mm 3 mps 752 mmHg 43%
18:00 +30°C° 2.2 mm 3 mps 753 mmHg 59%
19:00 +25°C° 2.2 mm 3 mps 754 mmHg 75%
20:00 +20°C° 2.2 mm 3 mps 754 mmHg 91%
21:00 +20°C° 0.6 mm 3 mps 754 mmHg 93%
22:00 +19°C° 0.6 mm 2 mps 754 mmHg 94%
23:00 +19°C° 0.6 mm 2 mps 754 mmHg 95%

25 June, Friday

Time Temperature Precipitation Wind Pressure Humidity
00:00 +19°C° 0.4 mm 2 mps 754 mmHg 95%
01:00 +20°C° 0.4 mm 1 mps 753 mmHg 96%
02:00 +21°C° 0.4 mm 1 mps 753 mmHg 96%
03:00 +21°C° 0.1 mm 1 mps 753 mmHg 96%
04:00 +21°C° 0.1 mm 1 mps 753 mmHg 96%
05:00 +22°C° 0.1 mm 1 mps 753 mmHg 96%
06:00 +23°C° 0.2 mm 1 mps 753 mmHg 90%
07:00 +25°C° 0.2 mm 2 mps 753 mmHg 85%
08:00 +26°C° 0.2 mm 2 mps 753 mmHg 80%
09:00 +28°C° 0 mm 2 mps 753 mmHg 70%
10:00 +30°C° 0 mm 3 mps 753 mmHg 60%
11:00 +33°C° 0 mm 3 mps 752 mmHg 50%
12:00 +34°C° 0 mm 3 mps 752 mmHg 47%
13:00 +34°C° 0 mm 4 mps 752 mmHg 43%
14:00 +35°C° 0 mm 4 mps 752 mmHg 40%
15:00 +35°C° 0 mm 4 mps 751 mmHg 44%
16:00 +34°C° 0 mm 4 mps 751 mmHg 47%
17:00 +33°C° 0 mm 3 mps 751 mmHg 51%
18:00 +29°C° 1 mm 3 mps 751 mmHg 63%
19:00 +26°C° 1 mm 3 mps 751 mmHg 75%
20:00 +22°C° 1 mm 3 mps 751 mmHg 87%
21:00 +21°C° 0.4 mm 2 mps 751 mmHg 88%
22:00 +21°C° 0.4 mm 2 mps 751 mmHg 89%
23:00 +20°C° 0.4 mm 2 mps 751 mmHg 90%
Show more